Wetterdaten: Sonntag, 11.10.2015
Datum Zeit Auen-Temp. Temp gefhlt Luftfeuchte Luftdruck Regen Wind Richtung Richtung Taupunkt Windben
11.10.2015 00:00 8,1 C 8,0 C 91 % 1012,0 hPa 0,0 mm 3,9 km/h (1 Bft) NO 45 6,7 C 6,2 km/h (2 Bft)
11.10.2015 00:05 8,1 C 8,0 C 91 % 1012,0 hPa 0,0 mm 4,1 km/h (1 Bft) N-NO 22 6,7 C 7,5 km/h (2 Bft)
11.10.2015 00:10 8,1 C 8,0 C 91 % 1011,8 hPa 0,0 mm 5,4 km/h (1 Bft) O-SO 112 6,7 C 5,4 km/h (1 Bft)
11.10.2015 00:15 8,1 C 8,0 C 91 % 1011,8 hPa 0,0 mm 6,7 km/h (2 Bft) N-NO 22 6,7 C 7,3 km/h (2 Bft)
11.10.2015 00:20 8,1 C 8,0 C 91 % 1011,8 hPa 0,0 mm 6,0 km/h (2 Bft) O 90 6,7 C 12,4 km/h (3 Bft)
11.10.2015 00:25 8,1 C 8,0 C 91 % 1011,8 hPa 0,0 mm 4,9 km/h (1 Bft) N-NO 22 6,7 C 7,5 km/h (2 Bft)
11.10.2015 00:30 8,1 C 8,0 C 91 % 1011,7 hPa 0,0 mm 5,2 km/h (1 Bft) NO 45 6,7 C 6,5 km/h (2 Bft)
11.10.2015 00:35 8,1 C 8,0 C 91 % 1011,7 hPa 0,0 mm 5,4 km/h (1 Bft) N-NW 337 6,7 C 3,6 km/h (1 Bft)
11.10.2015 00:40 8,1 C 8,0 C 91 % 1011,7 hPa 0,0 mm 5,2 km/h (1 Bft) N-NO 22 6,7 C 2,6 km/h (1 Bft)
11.10.2015 00:45 8,1 C 8,0 C 92 % 1011,7 hPa 0,0 mm 4,4 km/h (1 Bft) O 90 6,9 C 3,4 km/h (1 Bft)
11.10.2015 00:50 8,1 C 8,0 C 92 % 1011,7 hPa 0,0 mm 5,2 km/h (1 Bft) N-NO 22 6,9 C 7,3 km/h (2 Bft)
11.10.2015 00:55 8,1 C 8,0 C 92 % 1011,7 hPa 0,0 mm 5,4 km/h (1 Bft) NO 45 6,9 C 6,7 km/h (2 Bft)
11.10.2015 01:00 8,1 C 8,0 C 92 % 1011,7 hPa 0,0 mm 5,2 km/h (1 Bft) N-NO 22 6,9 C 3,9 km/h (1 Bft)
11.10.2015 01:05 8,0 C 8,0 C 88 % 1011,7 hPa 0,0 mm 3,9 km/h (1 Bft) O-NO 67 6,1 C 6,5 km/h (2 Bft)
11.10.2015 01:10 8,0 C 8,0 C 88 % 1011,4 hPa 0,0 mm 3,1 km/h (1 Bft) SO 135 6,1 C 2,6 km/h (1 Bft)
11.10.2015 01:15 8,0 C 8,0 C 88 % 1011,4 hPa 0,0 mm 2,8 km/h (1 Bft) O 90 6,1 C 5,7 km/h (1 Bft)
11.10.2015 01:20 8,0 C 8,0 C 88 % 1011,4 hPa 0,0 mm 2,8 km/h (1 Bft) NO 45 6,1 C 4,4 km/h (1 Bft)
11.10.2015 01:25 8,0 C 7,9 C 92 % 1011,4 hPa 0,0 mm 3,6 km/h (1 Bft) O-NO 67 6,8 C 2,6 km/h (1 Bft)
11.10.2015 01:30 8,0 C 7,9 C 92 % 1011,4 hPa 0,0 mm 4,1 km/h (1 Bft) NO 45 6,8 C 6,2 km/h (2 Bft)
11.10.2015 01:35 8,0 C 7,9 C 92 % 1011,4 hPa 0,0 mm 3,6 km/h (1 Bft) NO 45 6,8 C 0,0 km/h (0 Bft)
11.10.2015 01:40 8,0 C 7,9 C 92 % 1011,4 hPa 0,0 mm 4,1 km/h (1 Bft) NO 45 6,8 C 7,3 km/h (2 Bft)
11.10.2015 01:45 8,0 C 7,9 C 92 % 1011,4 hPa 0,0 mm 4,7 km/h (1 Bft) N-NO 22 6,8 C 2,8 km/h (1 Bft)
11.10.2015 01:50 7,9 C 7,9 C 89 % 1011,2 hPa 0,0 mm 4,7 km/h (1 Bft) O-NO 67 6,2 C 17,1 km/h (3 Bft)
11.10.2015 01:55 7,9 C 7,9 C 92 % 1011,2 hPa 0,0 mm 4,7 km/h (1 Bft) O-NO 67 6,7 C 4,4 km/h (1 Bft)
11.10.2015 02:00 7,9 C 7,9 C 92 % 1011,2 hPa 0,0 mm 4,9 km/h (1 Bft) O-NO 67 6,7 C 7,3 km/h (2 Bft)
11.10.2015 02:05 7,9 C 7,9 C 89 % 1011,2 hPa 0,0 mm 3,4 km/h (1 Bft) NO 45 6,2 C 0,0 km/h (0 Bft)
11.10.2015 02:10 7,9 C 7,9 C 92 % 1011,2 hPa 0,0 mm 2,8 km/h (1 Bft) O-NO 67 6,7 C 4,4 km/h (1 Bft)
11.10.2015 02:15 7,9 C 7,9 C 92 % 1011,2 hPa 0,0 mm 4,9 km/h (1 Bft) O-NO 67 6,7 C 9,6 km/h (2 Bft)
11.10.2015 02:20 7,9 C 7,8 C 92 % 1011,2 hPa 0,0 mm 6,0 km/h (2 Bft) O 90 6,7 C 6,0 km/h (2 Bft)
11.10.2015 02:25 7,8 C 7,8 C 89 % 1011,2 hPa 0,0 mm 5,4 km/h (1 Bft) O-NO 67 6,1 C 4,1 km/h (1 Bft)
11.10.2015 02:30 7,8 C 7,8 C 89 % 1011,2 hPa 0,0 mm 4,7 km/h (1 Bft) SO 135 6,1 C 4,9 km/h (1 Bft)
11.10.2015 02:35 7,8 C 7,8 C 89 % 1011,2 hPa 0,0 mm 2,8 km/h (1 Bft) N-NO 22 6,1 C 0,0 km/h (0 Bft)
11.10.2015 02:40 7,8 C 7,8 C 89 % 1011,2 hPa 0,0 mm 2,6 km/h (1 Bft) NO 45 6,1 C 4,9 km/h (1 Bft)
11.10.2015 02:45 7,8 C 7,8 C 89 % 1011,2 hPa 0,0 mm 2,8 km/h (1 Bft) O-NO 67 6,1 C 4,1 km/h (1 Bft)
11.10.2015 02:47 7,8 C 7,8 C 89 % 1011,2 hPa 0,0 mm 2,8 km/h (1 Bft) O-NO 67 6,1 C 4,1 km/h (1 Bft)
11.10.2015 02:50 7,8 C 7,8 C 89 % 1011,3 hPa 0,0 mm 3,6 km/h (1 Bft) O 90 6,1 C 3,4 km/h (1 Bft)
11.10.2015 02:55 7,8 C 7,8 C 89 % 1011,3 hPa 0,0 mm 2,8 km/h (1 Bft) SO 135 6,1 C 3,1 km/h (1 Bft)
11.10.2015 03:00 7,8 C 7,7 C 92 % 1011,3 hPa 0,0 mm 2,8 km/h (1 Bft) NO 45 6,6 C 9,3 km/h (2 Bft)
11.10.2015 03:05 7,8 C 7,7 C 92 % 1011,3 hPa 0,0 mm 4,9 km/h (1 Bft) O 90 6,6 C 3,9 km/h (1 Bft)
11.10.2015 03:10 7,7 C 7,7 C 89 % 1011,4 hPa 0,0 mm 4,9 km/h (1 Bft) W-SW 247 6,0 C 0,0 km/h (0 Bft)
11.10.2015 03:15 7,7 C 7,7 C 89 % 1011,4 hPa 0,0 mm 2,1 km/h (1 Bft) SO 135 6,0 C 4,9 km/h (1 Bft)
11.10.2015 03:20 7,7 C 7,7 C 89 % 1011,4 hPa 0,0 mm 1,3 km/h (1 Bft) O 90 6,0 C 4,4 km/h (1 Bft)
11.10.2015 03:25 7,7 C 7,6 C 92 % 1011,4 hPa 0,0 mm 2,8 km/h (1 Bft) SO 135 6,5 C 8,3 km/h (2 Bft)
11.10.2015 03:30 7,7 C 7,6 C 92 % 1011,2 hPa 0,0 mm 3,1 km/h (1 Bft) NO 45 6,5 C 0,0 km/h (0 Bft)
11.10.2015 03:35 7,7 C 7,6 C 92 % 1011,2 hPa 0,0 mm 2,6 km/h (1 Bft) S-SO 157 6,5 C 3,6 km/h (1 Bft)
11.10.2015 03:40 7,7 C 7,6 C 92 % 1011,2 hPa 0,0 mm 2,3 km/h (1 Bft) NO 45 6,5 C 0,0 km/h (0 Bft)
11.10.2015 03:45 7,7 C 7,6 C 92 % 1011,2 hPa 0,7 mm 1,8 km/h (1 Bft) NO 45 6,5 C 5,4 km/h (1 Bft)
11.10.2015 03:50 7,7 C 7,6 C 92 % 1011,0 hPa 0,0 mm 2,1 km/h (1 Bft) N-NW 337 6,5 C 5,2 km/h (1 Bft)
11.10.2015 03:55 7,7 C 7,6 C 92 % 1011,0 hPa 0,0 mm 4,4 km/h (1 Bft) O-NO 67 6,5 C 2,8 km/h (1 Bft)
11.10.2015 04:00 7,7 C 7,6 C 92 % 1011,0 hPa 0,0 mm 3,6 km/h (1 Bft) SO 135 6,5 C 0,0 km/h (0 Bft)
11.10.2015 04:05 7,6 C 7,5 C 92 % 1011,0 hPa 0,0 mm 1,6 km/h (1 Bft) N-NO 22 6,4 C 0,0 km/h (0 Bft)
11.10.2015 04:10 7,6 C 7,5 C 92 % 1011,1 hPa 0,0 mm 2,6 km/h (1 Bft) O-NO 67 6,4 C 10,1 km/h (2 Bft)
11.10.2015 04:15 7,6 C 7,5 C 92 % 1011,1 hPa 0,0 mm 3,6 km/h (1 Bft) N-NO 22 6,4 C 2,8 km/h (1 Bft)
11.10.2015 04:20 7,6 C 7,5 C 92 % 1011,1 hPa 0,0 mm 3,4 km/h (1 Bft) O-SO 112 6,4 C 7,0 km/h (2 Bft)
11.10.2015 04:25 7,6 C 7,5 C 92 % 1011,1 hPa 0,0 mm 3,4 km/h (1 Bft) NO 45 6,4 C 3,4 km/h (1 Bft)
11.10.2015 04:30 7,6 C 7,5 C 92 % 1011,0 hPa 0,0 mm 3,9 km/h (1 Bft) O-SO 112 6,4 C 10,4 km/h (2 Bft)
11.10.2015 04:35 7,5 C 7,5 C 92 % 1011,0 hPa 0,0 mm 3,6 km/h (1 Bft) O-SO 112 6,3 C 6,5 km/h (2 Bft)
11.10.2015 04:40 7,5 C 7,4 C 92 % 1011,0 hPa 0,0 mm 3,4 km/h (1 Bft) NO 45 6,3 C 3,4 km/h (1 Bft)
11.10.2015 04:45 7,5 C 7,4 C 92 % 1011,0 hPa 0,0 mm 2,8 km/h (1 Bft) NO 45 6,3 C 5,7 km/h (1 Bft)
11.10.2015 04:50 7,5 C 7,4 C 92 % 1011,1 hPa 0,0 mm 3,4 km/h (1 Bft) S 180 6,3 C 4,4 km/h (1 Bft)
11.10.2015 04:55 7,4 C 7,4 C 92 % 1011,1 hPa 0,0 mm 3,6 km/h (1 Bft) O-NO 67 6,2 C 3,4 km/h (1 Bft)
11.10.2015 05:00 7,4 C 7,4 C 89 % 1011,1 hPa 0,0 mm 2,8 km/h (1 Bft) NO 45 5,7 C 2,8 km/h (1 Bft)
11.10.2015 05:05 7,4 C 7,4 C 92 % 1011,1 hPa 0,0 mm 3,6 km/h (1 Bft) NO 45 6,2 C 5,2 km/h (1 Bft)
11.10.2015 05:10 7,4 C 7,4 C 93 % 1011,0 hPa 0,0 mm 4,4 km/h (1 Bft) O-NO 67 6,3 C 5,7 km/h (1 Bft)
11.10.2015 05:15 7,4 C 7,3 C 93 % 1011,0 hPa 0,0 mm 4,4 km/h (1 Bft) O-NO 67 6,3 C 2,6 km/h (1 Bft)
11.10.2015 05:20 7,3 C 7,3 C 93 % 1011,0 hPa 0,0 mm 3,9 km/h (1 Bft) O-SO 112 6,2 C 7,3 km/h (2 Bft)
11.10.2015 05:25 7,3 C 7,3 C 93 % 1011,0 hPa 0,0 mm 3,4 km/h (1 Bft) NO 45 6,2 C 5,7 km/h (1 Bft)
11.10.2015 05:30 7,3 C 7,2 C 93 % 1011,0 hPa 0,0 mm 4,1 km/h (1 Bft) O-NO 67 6,2 C 2,8 km/h (1 Bft)
11.10.2015 05:35 7,3 C 7,2 C 93 % 1011,0 hPa 0,0 mm 4,4 km/h (1 Bft) NO 45 6,2 C 7,3 km/h (2 Bft)
11.10.2015 05:40 7,2 C 7,2 C 89 % 1011,0 hPa 0,0 mm 3,9 km/h (1 Bft) O-NO 67 5,5 C 4,9 km/h (1 Bft)
11.10.2015 05:45 7,2 C 7,2 C 93 % 1011,0 hPa 0,0 mm 4,1 km/h (1 Bft) NO 45 6,1 C 3,4 km/h (1 Bft)
11.10.2015 05:50 7,2 C 7,2 C 93 % 1011,1 hPa 0,0 mm 3,4 km/h (1 Bft) O-NO 67 6,1 C 4,7 km/h (1 Bft)
11.10.2015 05:55 7,2 C 7,2 C 93 % 1011,1 hPa 0,0 mm 3,4 km/h (1 Bft) O-NO 67 6,1 C 7,8 km/h (2 Bft)
11.10.2015 06:00 7,2 C 7,2 C 93 % 1011,1 hPa 0,0 mm 3,6 km/h (1 Bft) N-NO 22 6,1 C 4,7 km/h (1 Bft)
11.10.2015 06:05 7,2 C 7,2 C 93 % 1011,1 hPa 0,0 mm 4,4 km/h (1 Bft) O-NO 67 6,1 C 7,8 km/h (2 Bft)
11.10.2015 06:10 7,2 C 7,1 C 93 % 1011,3 hPa 0,0 mm 4,4 km/h (1 Bft) NO 45 6,1 C 4,1 km/h (1 Bft)
11.10.2015 06:15 7,1 C 7,1 C 89 % 1011,3 hPa 0,0 mm 3,4 km/h (1 Bft) NO 45 5,4 C 4,9 km/h (1 Bft)
11.10.2015 06:20 7,1 C 7,1 C 89 % 1011,3 hPa 0,0 mm 2,8 km/h (1 Bft) O-NO 67 5,4 C 6,7 km/h (2 Bft)
11.10.2015 06:25 7,1 C 7,1 C 93 % 1011,3 hPa 0,0 mm 3,6 km/h (1 Bft) N 360 6,0 C 5,2 km/h (1 Bft)
11.10.2015 06:30 7,1 C 7,1 C 93 % 1011,3 hPa 0,0 mm 3,9 km/h (1 Bft) NO 45 6,0 C 4,7 km/h (1 Bft)
11.10.2015 06:35 7,1 C 7,1 C 93 % 1011,3 hPa 0,0 mm 3,6 km/h (1 Bft) N-NO 22 6,0 C 0,0 km/h (0 Bft)
11.10.2015 06:40 7,1 C 7,1 C 93 % 1011,3 hPa 0,0 mm 3,6 km/h (1 Bft) O 90 6,0 C 6,2 km/h (2 Bft)
11.10.2015 06:45 7,1 C 7,0 C 93 % 1011,3 hPa 0,0 mm 4,7 km/h (1 Bft) NO 45 6,0 C 9,6 km/h (2 Bft)
11.10.2015 06:50 7,1 C 7,0 C 93 % 1011,2 hPa 0,0 mm 5,2 km/h (1 Bft) O-SO 112 6,0 C 3,4 km/h (1 Bft)
11.10.2015 06:55 7,0 C 7,0 C 89 % 1011,2 hPa 0,0 mm 4,7 km/h (1 Bft) O-NO 67 5,3 C 4,1 km/h (1 Bft)
11.10.2015 07:00 7,0 C 7,0 C 93 % 1011,2 hPa 0,0 mm 4,7 km/h (1 Bft) O-NO 67 5,9 C 8,3 km/h (2 Bft)
11.10.2015 07:05 7,0 C 7,0 C 93 % 1011,2 hPa 0,0 mm 4,7 km/h (1 Bft) O-NO 67 5,9 C 5,2 km/h (1 Bft)
11.10.2015 07:10 7,0 C 7,0 C 93 % 1011,3 hPa 0,0 mm 4,9 km/h (1 Bft) NO 45 5,9 C 6,7 km/h (2 Bft)
11.10.2015 07:15 7,0 C 7,0 C 93 % 1011,3 hPa 0,0 mm 4,4 km/h (1 Bft) NO 45 5,9 C 4,1 km/h (1 Bft)
11.10.2015 07:20 7,0 C 7,0 C 93 % 1011,3 hPa 0,0 mm 4,4 km/h (1 Bft) O-NO 67 5,9 C 6,2 km/h (2 Bft)
11.10.2015 07:25 7,0 C 7,0 C 93 % 1011,3 hPa 0,0 mm 3,9 km/h (1 Bft) NO 45 5,9 C 7,3 km/h (2 Bft)
11.10.2015 07:30 7,0 C 7,0 C 93 % 1011,2 hPa 0,0 mm 4,4 km/h (1 Bft) O-NO 67 5,9 C 3,1 km/h (1 Bft)
11.10.2015 07:35 6,9 C 6,9 C 93 % 1011,2 hPa 0,0 mm 5,2 km/h (1 Bft) NO 45 5,8 C 7,3 km/h (2 Bft)
11.10.2015 07:40 6,9 C 7,0 C 90 % 1011,2 hPa 0,0 mm 5,2 km/h (1 Bft) O-SO 112 5,4 C 0,0 km/h (0 Bft)
11.10.2015 07:45 6,9 C 6,9 C 93 % 1011,2 hPa 0,0 mm 5,2 km/h (1 Bft) O 90 5,8 C 7,0 km/h (2 Bft)
11.10.2015 07:50 6,9 C 6,9 C 93 % 1011,2 hPa 0,0 mm 4,1 km/h (1 Bft) O-NO 67 5,8 C 7,5 km/h (2 Bft)
11.10.2015 07:55 6,9 C 6,9 C 93 % 1011,2 hPa 0,0 mm 4,4 km/h (1 Bft) NO 45 5,8 C 9,6 km/h (2 Bft)
11.10.2015 08:00 6,9 C 6,8 C 94 % 1011,2 hPa 0,0 mm 6,2 km/h (2 Bft) O-SO 112 6,0 C 6,2 km/h (2 Bft)
11.10.2015 08:05 6,9 C 6,7 C 94 % 1011,2 hPa 0,0 mm 6,5 km/h (2 Bft) N-NO 22 6,0 C 7,3 km/h (2 Bft)
11.10.2015 08:10 6,9 C 6,9 C 94 % 1011,4 hPa 0,0 mm 5,2 km/h (1 Bft) O-NO 67 6,0 C 18,4 km/h (3 Bft)
11.10.2015 08:15 6,8 C 6,9 C 90 % 1011,4 hPa 0,0 mm 5,2 km/h (1 Bft) NO 45 5,3 C 10,9 km/h (2 Bft)
11.10.2015 08:20 6,8 C 6,9 C 90 % 1011,4 hPa 0,0 mm 4,9 km/h (1 Bft) O-NO 67 5,3 C 6,2 km/h (2 Bft)
11.10.2015 08:25 6,8 C 6,8 C 90 % 1011,4 hPa 0,0 mm 4,4 km/h (1 Bft) O-NO 67 5,3 C 6,2 km/h (2 Bft)
11.10.2015 08:30 6,8 C 6,8 C 90 % 1011,6 hPa 0,0 mm 5,4 km/h (1 Bft) O-NO 67 5,3 C 8,0 km/h (2 Bft)
11.10.2015 08:35 6,8 C 6,7 C 94 % 1011,6 hPa 0,0 mm 6,5 km/h (2 Bft) NO 45 5,9 C 3,1 km/h (1 Bft)
11.10.2015 08:40 6,8 C 6,7 C 94 % 1011,6 hPa 0,0 mm 6,0 km/h (2 Bft) N-NO 22 5,9 C 6,2 km/h (2 Bft)
11.10.2015 08:45 6,7 C 6,8 C 90 % 1011,6 hPa 0,0 mm 5,4 km/h (1 Bft) O-NO 67 5,2 C 9,3 km/h (2 Bft)
11.10.2015 08:48 6,7 C 6,8 C 90 % 1011,6 hPa 0,0 mm 5,4 km/h (1 Bft) O-NO 67 5,2 C 9,3 km/h (2 Bft)
11.10.2015 08:50 6,7 C 6,7 C 90 % 1011,9 hPa 0,0 mm 6,2 km/h (2 Bft) O-NO 67 5,2 C 6,5 km/h (2 Bft)
11.10.2015 08:55 6,7 C 6,6 C 90 % 1011,9 hPa 0,0 mm 6,7 km/h (2 Bft) O-NO 67 5,2 C 10,4 km/h (2 Bft)
11.10.2015 09:00 6,7 C 6,7 C 90 % 1011,9 hPa 0,7 mm 6,2 km/h (2 Bft) O-NO 67 5,2 C 8,3 km/h (2 Bft)
11.10.2015 09:05 6,7 C 6,7 C 90 % 1011,9 hPa 0,0 mm 5,4 km/h (1 Bft) O-NO 67 5,2 C 8,5 km/h (2 Bft)
11.10.2015 09:10 6,7 C 6,8 C 90 % 1012,1 hPa 0,0 mm 4,7 km/h (1 Bft) N-NO 22 5,2 C 8,3 km/h (2 Bft)
11.10.2015 09:15 6,7 C 6,7 C 90 % 1012,1 hPa 0,0 mm 4,4 km/h (1 Bft) N-NO 22 5,2 C 4,1 km/h (1 Bft)
11.10.2015 09:20 6,7 C 6,8 C 90 % 1012,1 hPa 0,0 mm 4,7 km/h (1 Bft) O-NO 67 5,2 C 7,3 km/h (2 Bft)
11.10.2015 09:25 6,6 C 6,7 C 90 % 1012,1 hPa 0,0 mm 4,7 km/h (1 Bft) O-NO 67 5,1 C 6,2 km/h (2 Bft)
11.10.2015 09:30 6,6 C 6,7 C 90 % 1012,0 hPa 0,0 mm 5,2 km/h (1 Bft) O-NO 67 5,1 C 5,7 km/h (1 Bft)
11.10.2015 09:35 6,6 C 6,6 C 90 % 1012,0 hPa 0,0 mm 5,7 km/h (1 Bft) O-NO 67 5,1 C 7,3 km/h (2 Bft)
11.10.2015 09:40 6,6 C 6,7 C 90 % 1012,0 hPa 0,0 mm 5,2 km/h (1 Bft) NO 45 5,1 C 4,9 km/h (1 Bft)
11.10.2015 09:45 6,6 C 6,7 C 90 % 1012,0 hPa 0,0 mm 4,4 km/h (1 Bft) O-SO 112 5,1 C 7,8 km/h (2 Bft)
11.10.2015 09:50 6,6 C 6,7 C 90 % 1012,1 hPa 0,0 mm 5,4 km/h (1 Bft) O-NO 67 5,1 C 12,4 km/h (3 Bft)
11.10.2015 09:55 6,6 C 6,5 C 90 % 1012,1 hPa 0,0 mm 7,0 km/h (2 Bft) NO 45 5,1 C 13,5 km/h (3 Bft)
11.10.2015 10:00 6,5 C 6,3 C 90 % 1012,1 hPa 0,0 mm 8,3 km/h (2 Bft) N-NO 22 5,0 C 6,7 km/h (2 Bft)
11.10.2015 10:06 6,6 C 6,4 C 90 % 1012,1 hPa 0,0 mm 8,0 km/h (2 Bft) O-NO 67 5,1 C 7,3 km/h (2 Bft)
11.10.2015 10:10 6,6 C 6,6 C 90 % 1012,2 hPa 0,0 mm 6,5 km/h (2 Bft) O-NO 67 5,1 C 8,5 km/h (2 Bft)
11.10.2015 10:15 6,6 C 6,7 C 90 % 1012,2 hPa 0,0 mm 6,2 km/h (2 Bft) O-NO 67 5,1 C 6,7 km/h (2 Bft)
11.10.2015 10:20 6,6 C 6,6 C 90 % 1012,2 hPa 0,0 mm 6,5 km/h (2 Bft) O-NO 67 5,1 C 12,9 km/h (3 Bft)
11.10.2015 10:25 6,6 C 6,6 C 90 % 1012,2 hPa 0,0 mm 5,7 km/h (1 Bft) O-NO 67 5,1 C 4,4 km/h (1 Bft)
11.10.2015 10:30 6,6 C 6,6 C 90 % 1012,1 hPa 0,0 mm 6,5 km/h (2 Bft) NO 45 5,1 C 4,7 km/h (1 Bft)
11.10.2015 10:35 6,6 C 6,8 C 90 % 1012,1 hPa 0,0 mm 5,2 km/h (1 Bft) N-NO 22 5,1 C 12,2 km/h (2 Bft)
11.10.2015 10:40 6,6 C 6,8 C 90 % 1012,1 hPa 0,0 mm 4,9 km/h (1 Bft) NO 45 5,1 C 6,5 km/h (2 Bft)
11.10.2015 10:45 6,5 C 6,7 C 90 % 1012,1 hPa 0,0 mm 6,5 km/h (2 Bft) O-SO 112 5,0 C 5,4 km/h (1 Bft)
11.10.2015 10:50 6,5 C 6,7 C 90 % 1012,2 hPa 0,0 mm 6,5 km/h (2 Bft) O 90 5,0 C 9,3 km/h (2 Bft)
11.10.2015 10:55 6,5 C 6,8 C 90 % 1012,2 hPa 0,0 mm 5,7 km/h (1 Bft) N-NO 22 5,0 C 0,0 km/h (0 Bft)
11.10.2015 11:00 6,5 C 6,7 C 90 % 1012,2 hPa 0,0 mm 6,2 km/h (2 Bft) O-NO 67 5,0 C 10,1 km/h (2 Bft)
11.10.2015 11:05 6,5 C 6,8 C 90 % 1012,2 hPa 0,0 mm 5,2 km/h (1 Bft) SO 135 5,0 C 5,7 km/h (1 Bft)
11.10.2015 11:10 6,6 C 6,8 C 90 % 1012,3 hPa 0,0 mm 5,7 km/h (1 Bft) NO 45 5,1 C 9,3 km/h (2 Bft)
11.10.2015 11:15 6,6 C 6,8 C 90 % 1012,3 hPa 0,0 mm 5,7 km/h (1 Bft) N-NO 22 5,1 C 4,9 km/h (1 Bft)
11.10.2015 11:20 6,6 C 6,7 C 90 % 1012,3 hPa 0,0 mm 6,0 km/h (2 Bft) O-NO 67 5,1 C 11,7 km/h (2 Bft)
11.10.2015 11:25 6,6 C 6,8 C 90 % 1012,3 hPa 0,0 mm 5,2 km/h (1 Bft) N-NO 22 5,1 C 3,9 km/h (1 Bft)
11.10.2015 11:30 6,6 C 6,8 C 90 % 1012,2 hPa 0,0 mm 5,2 km/h (1 Bft) O-NO 67 5,1 C 9,6 km/h (2 Bft)
11.10.2015 11:35 6,6 C 7,0 C 90 % 1012,2 hPa 0,0 mm 5,2 km/h (1 Bft) O-SO 112 5,1 C 5,2 km/h (1 Bft)
11.10.2015 11:40 6,7 C 7,0 C 90 % 1012,2 hPa 0,0 mm 4,9 km/h (1 Bft) W-NW 292 5,2 C 5,7 km/h (1 Bft)
11.10.2015 11:45 6,8 C 7,1 C 90 % 1012,2 hPa 0,0 mm 4,4 km/h (1 Bft) NW 315 5,3 C 0,0 km/h (0 Bft)
11.10.2015 11:50 6,8 C 7,2 C 90 % 1012,2 hPa 0,0 mm 3,9 km/h (1 Bft) N-NO 22 5,3 C 8,0 km/h (2 Bft)
11.10.2015 11:55 6,9 C 7,2 C 90 % 1012,2 hPa 0,0 mm 3,6 km/h (1 Bft) N-NW 337 5,4 C 4,1 km/h (1 Bft)
11.10.2015 12:00 6,9 C 7,2 C 90 % 1012,2 hPa 0,0 mm 4,7 km/h (1 Bft) O-NO 67 5,4 C 4,9 km/h (1 Bft)
11.10.2015 12:05 6,9 C 7,2 C 90 % 1012,2 hPa 0,0 mm 3,9 km/h (1 Bft) O-SO 112 5,4 C 6,2 km/h (2 Bft)
11.10.2015 12:10 6,9 C 7,3 C 90 % 1012,2 hPa 0,0 mm 3,6 km/h (1 Bft) O-NO 67 5,4 C 8,0 km/h (2 Bft)
11.10.2015 12:15 7,0 C 7,4 C 90 % 1012,2 hPa 0,0 mm 4,7 km/h (1 Bft) NO 45 5,5 C 6,0 km/h (2 Bft)
11.10.2015 12:20 7,0 C 7,5 C 90 % 1012,2 hPa 0,0 mm 5,2 km/h (1 Bft) NO 45 5,5 C 6,5 km/h (2 Bft)
11.10.2015 12:25 7,1 C 7,5 C 90 % 1012,2 hPa 0,0 mm 4,7 km/h (1 Bft) NO 45 5,6 C 4,7 km/h (1 Bft)
11.10.2015 12:30 7,1 C 7,6 C 90 % 1012,2 hPa 0,0 mm 5,7 km/h (1 Bft) N-NO 22 5,6 C 9,1 km/h (2 Bft)
11.10.2015 12:35 7,1 C 7,8 C 89 % 1012,2 hPa 0,0 mm 5,4 km/h (1 Bft) N-NO 22 5,4 C 6,2 km/h (2 Bft)
11.10.2015 12:40 7,2 C 8,0 C 89 % 1012,2 hPa 0,0 mm 4,9 km/h (1 Bft) N-NO 22 5,5 C 8,0 km/h (2 Bft)
11.10.2015 12:45 7,2 C 8,2 C 89 % 1012,2 hPa 0,0 mm 5,4 km/h (1 Bft) NO 45 5,5 C 6,7 km/h (2 Bft)
11.10.2015 12:50 7,2 C 8,3 C 89 % 1012,4 hPa 0,0 mm 6,0 km/h (2 Bft) NO 45 5,5 C 8,3 km/h (2 Bft)
11.10.2015 12:55 7,2 C 7,9 C 89 % 1012,4 hPa 0,0 mm 7,0 km/h (2 Bft) N-NO 22 5,5 C 4,9 km/h (1 Bft)
11.10.2015 13:00 7,2 C 7,6 C 89 % 1012,4 hPa 0,0 mm 7,8 km/h (2 Bft) O-NO 67 5,5 C 10,9 km/h (2 Bft)
11.10.2015 13:05 7,1 C 7,4 C 89 % 1012,4 hPa 0,0 mm 7,3 km/h (2 Bft) N-NO 22 5,4 C 10,6 km/h (2 Bft)
11.10.2015 13:10 7,1 C 7,4 C 89 % 1012,4 hPa 0,0 mm 7,5 km/h (2 Bft) O-NO 67 5,4 C 19,9 km/h (4 Bft)
11.10.2015 13:15 7,2 C 7,4 C 89 % 1012,4 hPa 0,0 mm 8,0 km/h (2 Bft) O-NO 67 5,5 C 8,8 km/h (2 Bft)
11.10.2015 13:20 7,2 C 7,5 C 89 % 1012,4 hPa 0,0 mm 7,5 km/h (2 Bft) O-NO 67 5,5 C 12,2 km/h (2 Bft)
11.10.2015 13:25 7,3 C 7,8 C 89 % 1012,4 hPa 0,0 mm 7,5 km/h (2 Bft) NO 45 5,6 C 6,7 km/h (2 Bft)
11.10.2015 13:30 7,2 C 7,6 C 89 % 1012,6 hPa 0,0 mm 8,0 km/h (2 Bft) NO 45 5,5 C 12,4 km/h (3 Bft)
11.10.2015 13:35 7,2 C 7,6 C 89 % 1012,6 hPa 0,0 mm 7,8 km/h (2 Bft) N-NO 22 5,5 C 7,5 km/h (2 Bft)
11.10.2015 13:40 7,2 C 7,7 C 89 % 1012,6 hPa 0,0 mm 7,0 km/h (2 Bft) O 90 5,5 C 10,4 km/h (2 Bft)
11.10.2015 13:45 7,2 C 7,8 C 89 % 1012,6 hPa 0,0 mm 6,7 km/h (2 Bft) N-NO 22 5,5 C 8,3 km/h (2 Bft)
11.10.2015 13:50 7,2 C 8,0 C 89 % 1012,2 hPa 0,0 mm 6,0 km/h (2 Bft) O-NO 67 5,5 C 6,7 km/h (2 Bft)
11.10.2015 13:55 7,4 C 8,5 C 89 % 1012,2 hPa 0,0 mm 5,4 km/h (1 Bft) N-NO 22 5,7 C 9,8 km/h (2 Bft)
11.10.2015 14:00 7,5 C 8,6 C 89 % 1012,2 hPa 0,0 mm 5,4 km/h (1 Bft) O-NO 67 5,8 C 10,9 km/h (2 Bft)
11.10.2015 14:05 7,4 C 8,3 C 89 % 1012,2 hPa 0,0 mm 7,5 km/h (2 Bft) NO 45 5,7 C 14,0 km/h (3 Bft)
11.10.2015 14:10 7,3 C 7,6 C 89 % 1012,2 hPa 0,0 mm 9,3 km/h (2 Bft) O-NO 67 5,6 C 10,9 km/h (2 Bft)
11.10.2015 14:15 7,3 C 7,5 C 89 % 1012,2 hPa 0,0 mm 9,6 km/h (2 Bft) N-NO 22 5,6 C 11,4 km/h (2 Bft)
11.10.2015 14:20 7,3 C 7,8 C 89 % 1012,2 hPa 0,0 mm 7,5 km/h (2 Bft) NO 45 5,6 C 15,5 km/h (3 Bft)
11.10.2015 14:25 7,3 C 7,8 C 89 % 1012,2 hPa 0,0 mm 6,7 km/h (2 Bft) O-NO 67 5,6 C 11,7 km/h (2 Bft)
11.10.2015 14:30 7,3 C 7,8 C 89 % 1012,2 hPa 0,0 mm 6,5 km/h (2 Bft) O-SO 112 5,6 C 6,5 km/h (2 Bft)
11.10.2015 14:35 7,2 C 7,7 C 89 % 1012,2 hPa 0,0 mm 7,3 km/h (2 Bft) NO 45 5,5 C 10,1 km/h (2 Bft)
11.10.2015 14:40 7,2 C 7,5 C 89 % 1012,2 hPa 0,0 mm 7,3 km/h (2 Bft) O-NO 67 5,5 C 2,6 km/h (1 Bft)
11.10.2015 14:45 7,2 C 7,8 C 89 % 1012,2 hPa 0,0 mm 6,0 km/h (2 Bft) SO 135 5,5 C 3,1 km/h (1 Bft)
11.10.2015 14:49 7,2 C 7,8 C 89 % 1012,2 hPa 0,0 mm 6,0 km/h (2 Bft) SO 135 5,5 C 3,1 km/h (1 Bft)
11.10.2015 14:50 7,2 C 7,9 C 89 % 1012,4 hPa 0,0 mm 5,7 km/h (1 Bft) N-NO 22 5,5 C 6,7 km/h (2 Bft)
11.10.2015 14:55 7,3 C 7,9 C 89 % 1012,4 hPa 0,0 mm 5,7 km/h (1 Bft) O-SO 112 5,6 C 13,5 km/h (3 Bft)
11.10.2015 15:00 7,2 C 7,5 C 88 % 1012,4 hPa 0,0 mm 6,7 km/h (2 Bft) O-NO 67 5,3 C 11,7 km/h (2 Bft)
11.10.2015 15:05 7,2 C 7,3 C 88 % 1012,4 hPa 0,0 mm 8,0 km/h (2 Bft) NO 45 5,3 C 11,9 km/h (2 Bft)
11.10.2015 15:10 7,1 C 7,3 C 88 % 1012,3 hPa 0,0 mm 7,3 km/h (2 Bft) O-NO 67 5,2 C 7,5 km/h (2 Bft)
11.10.2015 15:15 7,1 C 7,3 C 88 % 1012,3 hPa 0,0 mm 6,2 km/h (2 Bft) NO 45 5,2 C 6,7 km/h (2 Bft)
11.10.2015 15:20 7,0 C 7,3 C 88 % 1012,3 hPa 0,0 mm 6,0 km/h (2 Bft) N-NO 22 5,2 C 11,1 km/h (2 Bft)
11.10.2015 15:25 7,0 C 7,2 C 88 % 1012,3 hPa 0,0 mm 6,5 km/h (2 Bft) O-NO 67 5,2 C 11,9 km/h (2 Bft)
11.10.2015 15:30 7,0 C 7,0 C 88 % 1012,2 hPa 0,0 mm 8,0 km/h (2 Bft) O-NO 67 5,2 C 10,9 km/h (2 Bft)
11.10.2015 15:35 7,0 C 7,1 C 88 % 1012,2 hPa 0,0 mm 6,7 km/h (2 Bft) O-NO 67 5,2 C 2,6 km/h (1 Bft)
11.10.2015 15:40 7,0 C 7,3 C 88 % 1012,2 hPa 0,0 mm 5,7 km/h (1 Bft) O-NO 67 5,2 C 5,7 km/h (1 Bft)
11.10.2015 15:45 7,0 C 7,4 C 88 % 1012,2 hPa 0,0 mm 5,7 km/h (1 Bft) O-NO 67 5,2 C 11,7 km/h (2 Bft)
11.10.2015 15:50 7,0 C 7,4 C 88 % 1012,2 hPa 0,0 mm 5,7 km/h (1 Bft) N-NO 22 5,2 C 12,7 km/h (3 Bft)
11.10.2015 15:55 7,0 C 7,4 C 88 % 1012,2 hPa 0,0 mm 5,2 km/h (1 Bft) NO 45 5,2 C 9,1 km/h (2 Bft)
11.10.2015 16:00 7,0 C 7,3 C 88 % 1012,2 hPa 0,0 mm 6,0 km/h (2 Bft) O-NO 67 5,2 C 4,9 km/h (1 Bft)
11.10.2015 16:05 7,0 C 7,3 C 88 % 1012,2 hPa 0,0 mm 5,7 km/h (1 Bft) O-NO 67 5,2 C 11,7 km/h (2 Bft)
11.10.2015 16:10 6,9 C 7,0 C 88 % 1012,4 hPa 0,0 mm 6,2 km/h (2 Bft) NO 45 5,1 C 10,4 km/h (2 Bft)
11.10.2015 16:15 6,8 C 6,7 C 88 % 1012,4 hPa 0,0 mm 8,0 km/h (2 Bft) O-NO 67 5,0 C 6,7 km/h (2 Bft)
11.10.2015 16:20 6,8 C 6,7 C 88 % 1012,4 hPa 0,0 mm 7,0 km/h (2 Bft) O-NO 67 5,0 C 14,2 km/h (3 Bft)
11.10.2015 16:25 6,8 C 6,8 C 88 % 1012,4 hPa 0,0 mm 6,5 km/h (2 Bft) O-NO 67 5,0 C 6,7 km/h (2 Bft)
11.10.2015 16:30 6,8 C 6,7 C 88 % 1012,3 hPa 0,0 mm 7,8 km/h (2 Bft) NO 45 5,0 C 15,5 km/h (3 Bft)
11.10.2015 16:35 6,8 C 6,7 C 88 % 1012,3 hPa 0,0 mm 7,5 km/h (2 Bft) N-NO 22 5,0 C 14,0 km/h (3 Bft)
11.10.2015 16:40 6,8 C 6,7 C 88 % 1012,3 hPa 0,0 mm 7,3 km/h (2 Bft) N-NW 337 5,0 C 11,7 km/h (2 Bft)
11.10.2015 16:45 6,7 C 6,7 C 88 % 1012,3 hPa 0,0 mm 8,0 km/h (2 Bft) O-NO 67 4,9 C 12,7 km/h (3 Bft)
11.10.2015 16:50 6,7 C 6,6 C 88 % 1012,3 hPa 0,0 mm 8,3 km/h (2 Bft) O-NO 67 4,9 C 12,9 km/h (3 Bft)
11.10.2015 16:55 6,7 C 6,5 C 88 % 1012,3 hPa 0,0 mm 8,5 km/h (2 Bft) O-NO 67 4,9 C 13,2 km/h (3 Bft)
11.10.2015 17:00 6,6 C 6,4 C 88 % 1012,3 hPa 0,0 mm 8,8 km/h (2 Bft) N-NO 22 4,8 C 3,6 km/h (1 Bft)
11.10.2015 17:05 6,5 C 6,3 C 88 % 1012,3 hPa 0,0 mm 8,8 km/h (2 Bft) O-NO 67 4,7 C 12,9 km/h (3 Bft)
11.10.2015 17:10 6,5 C 6,2 C 90 % 1012,5 hPa 0,0 mm 9,3 km/h (2 Bft) NO 45 5,0 C 11,4 km/h (2 Bft)
11.10.2015 17:15 6,4 C 6,3 C 88 % 1012,5 hPa 0,0 mm 7,8 km/h (2 Bft) N-NO 22 4,6 C 9,6 km/h (2 Bft)
11.10.2015 17:20 6,4 C 6,3 C 88 % 1012,5 hPa 0,0 mm 7,5 km/h (2 Bft) O-NO 67 4,6 C 22,3 km/h (4 Bft)
11.10.2015 17:25 6,4 C 6,2 C 88 % 1012,5 hPa 0,0 mm 8,8 km/h (2 Bft) N-NO 22 4,6 C 12,2 km/h (2 Bft)
11.10.2015 17:30 6,4 C 6,2 C 88 % 1012,6 hPa 0,0 mm 8,5 km/h (2 Bft) O-SO 112 4,6 C 9,6 km/h (2 Bft)
11.10.2015 17:35 6,4 C 6,2 C 90 % 1012,6 hPa 0,0 mm 7,0 km/h (2 Bft) N-NW 337 4,9 C 3,4 km/h (1 Bft)
11.10.2015 17:40 6,3 C 6,3 C 88 % 1012,6 hPa 0,0 mm 6,2 km/h (2 Bft) O-NO 67 4,5 C 5,4 km/h (1 Bft)
11.10.2015 17:45 6,3 C 6,2 C 90 % 1012,6 hPa 0,0 mm 6,2 km/h (2 Bft) O-NO 67 4,8 C 15,0 km/h (3 Bft)
11.10.2015 17:50 6,2 C 6,1 C 88 % 1012,5 hPa 0,0 mm 7,0 km/h (2 Bft) O-NO 67 4,4 C 15,8 km/h (3 Bft)
11.10.2015 17:55 6,2 C 6,3 C 88 % 1012,5 hPa 0,0 mm 4,9 km/h (1 Bft) O-NO 67 4,4 C 6,0 km/h (2 Bft)
11.10.2015 18:00 6,2 C 6,3 C 88 % 1012,5 hPa 0,0 mm 3,6 km/h (1 Bft) SO 135 4,4 C 0,0 km/h (0 Bft)
11.10.2015 18:05 6,2 C 6,2 C 90 % 1012,5 hPa 0,0 mm 4,9 km/h (1 Bft) O 90 4,7 C 5,4 km/h (1 Bft)
11.10.2015 18:10 6,1 C 6,2 C 88 % 1012,6 hPa 0,0 mm 5,4 km/h (1 Bft) O-NO 67 4,3 C 6,2 km/h (2 Bft)
11.10.2015 18:15 6,1 C 6,0 C 90 % 1012,6 hPa 0,0 mm 5,4 km/h (1 Bft) N-NO 22 4,6 C 10,6 km/h (2 Bft)
11.10.2015 18:20 6,0 C 6,0 C 88 % 1012,6 hPa 0,0 mm 6,0 km/h (2 Bft) NO 45 4,2 C 3,4 km/h (1 Bft)
11.10.2015 18:25 6,0 C 6,0 C 88 % 1012,6 hPa 0,0 mm 5,7 km/h (1 Bft) SW 225 4,2 C 2,6 km/h (1 Bft)
11.10.2015 18:30 6,0 C 6,0 C 90 % 1012,8 hPa 0,0 mm 4,9 km/h (1 Bft) O-NO 67 4,5 C 5,4 km/h (1 Bft)
11.10.2015 18:35 6,0 C 5,8 C 90 % 1012,8 hPa 0,0 mm 6,7 km/h (2 Bft) SO 135 4,5 C 11,4 km/h (2 Bft)
11.10.2015 18:40 6,0 C 5,8 C 90 % 1012,8 hPa 0,0 mm 7,0 km/h (2 Bft) O-NO 67 4,5 C 8,3 km/h (2 Bft)
11.10.2015 18:45 6,0 C 5,8 C 90 % 1012,8 hPa 0,0 mm 6,7 km/h (2 Bft) NO 45 4,5 C 3,1 km/h (1 Bft)
11.10.2015 18:50 6,0 C 5,8 C 90 % 1012,6 hPa 0,0 mm 6,7 km/h (2 Bft) O-NO 67 4,5 C 9,6 km/h (2 Bft)
11.10.2015 18:55 5,9 C 5,8 C 89 % 1012,6 hPa 0,0 mm 6,5 km/h (2 Bft) NO 45 4,2 C 7,8 km/h (2 Bft)
11.10.2015 19:00 5,9 C 5,8 C 89 % 1012,6 hPa 0,0 mm 6,5 km/h (2 Bft) SW 225 4,2 C 13,5 km/h (3 Bft)
11.10.2015 19:05 5,9 C 5,9 C 89 % 1012,6 hPa 0,0 mm 5,4 km/h (1 Bft) O-NO 67 4,2 C 4,7 km/h (1 Bft)
11.10.2015 19:10 6,0 C 5,9 C 90 % 1012,7 hPa 0,0 mm 4,7 km/h (1 Bft) N-NO 22 4,5 C 0,0 km/h (0 Bft)
11.10.2015 19:15 5,9 C 5,9 C 89 % 1012,7 hPa 0,0 mm 3,9 km/h (1 Bft) W-SW 247 4,2 C 3,6 km/h (1 Bft)
11.10.2015 19:20 5,9 C 5,9 C 89 % 1012,7 hPa 0,0 mm 3,6 km/h (1 Bft) NO 45 4,2 C 10,9 km/h (2 Bft)
11.10.2015 19:25 5,9 C 5,9 C 89 % 1012,7 hPa 0,0 mm 3,6 km/h (1 Bft) O-NO 67 4,2 C 4,1 km/h (1 Bft)
11.10.2015 19:30 5,9 C 5,9 C 92 % 1012,7 hPa 0,0 mm 4,1 km/h (1 Bft) NO 45 4,7 C 0,0 km/h (0 Bft)
11.10.2015 19:35 5,9 C 5,9 C 89 % 1012,7 hPa 0,0 mm 3,6 km/h (1 Bft) O 90 4,2 C 3,9 km/h (1 Bft)
11.10.2015 19:40 5,9 C 5,9 C 89 % 1012,7 hPa 0,0 mm 2,6 km/h (1 Bft) NO 45 4,2 C 4,1 km/h (1 Bft)
11.10.2015 19:45 5,9 C 5,9 C 89 % 1012,7 hPa 0,0 mm 2,6 km/h (1 Bft) O-SO 112 4,2 C 0,0 km/h (0 Bft)
11.10.2015 19:50 5,9 C 5,9 C 89 % 1013,0 hPa 0,0 mm 2,6 km/h (1 Bft) O-NO 67 4,2 C 0,0 km/h (0 Bft)
11.10.2015 19:55 5,9 C 5,9 C 89 % 1013,0 hPa 0,0 mm 2,6 km/h (1 Bft) NW 315 4,2 C 2,8 km/h (1 Bft)
11.10.2015 20:00 5,9 C 5,8 C 92 % 1013,0 hPa 0,0 mm 3,4 km/h (1 Bft) O-NO 67 4,7 C 7,8 km/h (2 Bft)
11.10.2015 20:05 5,9 C 5,8 C 92 % 1013,0 hPa 0,0 mm 3,4 km/h (1 Bft) O-NO 67 4,7 C 3,9 km/h (1 Bft)
11.10.2015 20:10 5,9 C 5,8 C 92 % 1013,1 hPa 0,0 mm 3,1 km/h (1 Bft) O-NO 67 4,7 C 4,9 km/h (1 Bft)
11.10.2015 20:15 5,9 C 5,8 C 92 % 1013,1 hPa 0,0 mm 3,1 km/h (1 Bft) O-NO 67 4,7 C 4,4 km/h (1 Bft)
11.10.2015 20:20 5,9 C 5,8 C 92 % 1013,1 hPa 0,0 mm 3,1 km/h (1 Bft) SO 135 4,7 C 6,2 km/h (2 Bft)
11.10.2015 20:25 5,9 C 5,8 C 92 % 1013,1 hPa 0,0 mm 3,9 km/h (1 Bft) NO 45 4,7 C 8,8 km/h (2 Bft)
11.10.2015 20:30 5,8 C 5,8 C 89 % 1013,0 hPa 0,0 mm 3,4 km/h (1 Bft) O 90 4,1 C 3,9 km/h (1 Bft)
11.10.2015 20:35 5,8 C 5,8 C 89 % 1013,0 hPa 0,0 mm 3,1 km/h (1 Bft) O-NO 67 4,1 C 3,9 km/h (1 Bft)
11.10.2015 20:40 5,8 C 5,7 C 92 % 1013,0 hPa 0,0 mm 3,1 km/h (1 Bft) O-NO 67 4,6 C 5,4 km/h (1 Bft)
11.10.2015 20:45 5,8 C 5,7 C 92 % 1013,0 hPa 0,0 mm 4,4 km/h (1 Bft) O-NO 67 4,6 C 11,1 km/h (2 Bft)
11.10.2015 20:50 5,7 C 5,7 C 89 % 1013,1 hPa 0,0 mm 5,2 km/h (1 Bft) O-NO 67 4,0 C 7,8 km/h (2 Bft)
11.10.2015 20:55 5,7 C 5,7 C 89 % 1013,1 hPa 0,0 mm 5,4 km/h (1 Bft) N-NO 22 4,0 C 8,3 km/h (2 Bft)
11.10.2015 21:00 5,7 C 5,5 C 92 % 1013,1 hPa 0,0 mm 5,7 km/h (1 Bft) NO 45 4,5 C 6,7 km/h (2 Bft)
11.10.2015 21:05 5,7 C 5,6 C 92 % 1013,1 hPa 0,0 mm 4,9 km/h (1 Bft) O-SO 112 4,5 C 2,8 km/h (1 Bft)
11.10.2015 21:10 5,7 C 5,6 C 92 % 1012,9 hPa 0,0 mm 3,4 km/h (1 Bft) NO 45 4,5 C 4,7 km/h (1 Bft)
11.10.2015 21:15 5,7 C 5,6 C 92 % 1012,9 hPa 0,0 mm 3,4 km/h (1 Bft) O-NO 67 4,5 C 7,3 km/h (2 Bft)
11.10.2015 21:20 5,7 C 5,6 C 92 % 1012,9 hPa 0,0 mm 4,9 km/h (1 Bft) O 90 4,5 C 8,5 km/h (2 Bft)
11.10.2015 21:25 5,7 C 5,6 C 92 % 1012,9 hPa 0,0 mm 4,1 km/h (1 Bft) O-NO 67 4,5 C 4,7 km/h (1 Bft)
11.10.2015 21:30 5,7 C 5,6 C 92 % 1013,1 hPa 0,0 mm 3,1 km/h (1 Bft) O-SO 112 4,5 C 0,0 km/h (0 Bft)
11.10.2015 21:35 5,7 C 5,6 C 92 % 1013,1 hPa 0,0 mm 2,8 km/h (1 Bft) O-NO 67 4,5 C 4,9 km/h (1 Bft)
11.10.2015 21:40 5,6 C 5,5 C 92 % 1013,1 hPa 0,0 mm 3,6 km/h (1 Bft) O-NO 67 4,4 C 5,2 km/h (1 Bft)
11.10.2015 21:45 5,6 C 5,4 C 92 % 1013,1 hPa 0,0 mm 5,7 km/h (1 Bft) NO 45 4,4 C 5,2 km/h (1 Bft)
11.10.2015 21:50 5,6 C 5,4 C 92 % 1012,9 hPa 0,0 mm 6,2 km/h (2 Bft) O-NO 67 4,4 C 11,4 km/h (2 Bft)
11.10.2015 21:55 5,6 C 5,4 C 92 % 1012,9 hPa 0,0 mm 5,7 km/h (1 Bft) N-NO 22 4,4 C 6,2 km/h (2 Bft)
11.10.2015 22:00 5,5 C 5,3 C 92 % 1012,9 hPa 0,0 mm 6,0 km/h (2 Bft) O-NO 67 4,3 C 8,5 km/h (2 Bft)
11.10.2015 22:05 5,5 C 5,4 C 92 % 1012,9 hPa 0,0 mm 4,4 km/h (1 Bft) NO 45 4,3 C 3,1 km/h (1 Bft)
11.10.2015 22:10 5,5 C 5,4 C 92 % 1012,9 hPa 0,0 mm 4,1 km/h (1 Bft) O-NO 67 4,3 C 6,7 km/h (2 Bft)
11.10.2015 22:15 5,4 C 5,2 C 92 % 1012,9 hPa 0,0 mm 6,0 km/h (2 Bft) O-NO 67 4,2 C 10,4 km/h (2 Bft)
11.10.2015 22:20 5,3 C 5,0 C 92 % 1012,9 hPa 0,0 mm 7,8 km/h (2 Bft) O-NO 67 4,1 C 8,3 km/h (2 Bft)
11.10.2015 22:25 5,3 C 5,1 C 92 % 1012,9 hPa 0,0 mm 6,7 km/h (2 Bft) NO 45 4,1 C 10,1 km/h (2 Bft)
11.10.2015 22:30 5,2 C 5,1 C 92 % 1012,9 hPa 0,0 mm 4,9 km/h (1 Bft) O-NO 67 4,0 C 6,5 km/h (2 Bft)
11.10.2015 22:35 5,2 C 5,1 C 92 % 1012,9 hPa 0,0 mm 4,4 km/h (1 Bft) N-NO 22 4,0 C 2,6 km/h (1 Bft)
11.10.2015 22:40 5,2 C 5,1 C 92 % 1012,9 hPa 0,0 mm 3,6 km/h (1 Bft) O 90 4,0 C 6,5 km/h (2 Bft)
11.10.2015 22:45 5,2 C 5,1 C 92 % 1012,9 hPa 0,0 mm 2,8 km/h (1 Bft) N-NO 22 4,0 C 3,9 km/h (1 Bft)
11.10.2015 22:50 5,2 C 5,1 C 92 % 1012,8 hPa 0,0 mm 2,3 km/h (1 Bft) NO 45 4,0 C 3,9 km/h (1 Bft)
11.10.2015 22:55 5,1 C 5,0 C 92 % 1012,8 hPa 0,0 mm 3,6 km/h (1 Bft) O 90 3,9 C 5,7 km/h (1 Bft)
11.10.2015 23:00 5,1 C 5,0 C 92 % 1012,8 hPa 0,0 mm 4,7 km/h (1 Bft) O-NO 67 3,9 C 5,4 km/h (1 Bft)
11.10.2015 23:05 5,1 C 5,0 C 92 % 1012,8 hPa 0,0 mm 4,9 km/h (1 Bft) NO 45 3,9 C 5,7 km/h (1 Bft)
11.10.2015 23:10 5,0 C 5,0 C 89 % 1012,9 hPa 0,0 mm 4,7 km/h (1 Bft) NO 45 3,3 C 2,6 km/h (1 Bft)
11.10.2015 23:15 5,0 C 4,9 C 92 % 1012,9 hPa 0,0 mm 4,4 km/h (1 Bft) NO 45 3,8 C 7,5 km/h (2 Bft)
11.10.2015 23:20 5,0 C 4,9 C 92 % 1012,9 hPa 0,0 mm 4,4 km/h (1 Bft) O-NO 67 3,8 C 4,7 km/h (1 Bft)
11.10.2015 23:25 4,8 C 4,9 C 89 % 1012,9 hPa 0,0 mm 2,8 km/h (1 Bft) NO 45 3,1 C 3,6 km/h (1 Bft)
11.10.2015 23:30 4,8 C 4,9 C 89 % 1012,4 hPa 0,0 mm 2,1 km/h (1 Bft) O-NO 67 3,1 C 3,1 km/h (1 Bft)
11.10.2015 23:35 4,8 C 4,9 C 89 % 1012,4 hPa 0,0 mm 2,3 km/h (1 Bft) O-NO 67 3,1 C 3,6 km/h (1 Bft)
11.10.2015 23:40 4,8 C 4,9 C 89 % 1012,4 hPa 0,0 mm 2,3 km/h (1 Bft) O 90 3,1 C 6,0 km/h (2 Bft)
11.10.2015 23:45 4,8 C 4,8 C 89 % 1012,4 hPa 0,0 mm 3,4 km/h (1 Bft) O-NO 67 3,1 C 5,2 km/h (1 Bft)
11.10.2015 23:50 4,7 C 4,8 C 89 % 1012,6 hPa 0,0 mm 3,4 km/h (1 Bft) O-NO 67 3,0 C 0,0 km/h (0 Bft)
11.10.2015 23:55 4,7 C 4,7 C 89 % 1012,6 hPa 0,0 mm 1,8 km/h (1 Bft) NO 45 3,0 C 3,1 km/h (1 Bft)
_ Min-Zeit 23:55 23:55 18:25 05:45 - 03:20 - - 23:55 23:50
Minimum _ 4,7 C 4,7 C 88 % 1011,0 hPa - 1,3 km/h (1 Bft) - - 3,0 C 0,0 km/h (0 Bft)
_ Max-Zeit 01:00 14:00 08:40 21:45 09:00 14:15 - - 01:00 17:20
Maximum _ 8,1 C 8,6 C 94 % 1013,1 hPa 0,7 mm 9,6 km/h
N-NO (2 Bft)
- - 6,9 C 22,3 km/h
O-NO (4 Bft)
Durchschnitt _ 6,8 C 6,8 C 90 % 1012,0 hPa #1,4 mm 5,0 km/h (1 Bft) O-NO - 5,3 C 6,7 km/h (2 Bft)